FW4023 Weather Reports


Display with metric or nautical units.
time (UTC)temp
F
wind
direction
speed
MPH
gust
MPH
rain 1hr
in
rain 24hr
in
rain mn
in
humidity
%
barometer
mb
20260505211004 51 70 0.0 3.0 0.00 0.01 0.00 85 1028.2
20260505210004 51 33 1.0 3.0 0.00 0.01 0.00 84 1028.1
20260505205003 51 41 1.0 6.0 0.00 0.01 0.00 84 1028.0
20260505204003 51 265 1.0 3.0 0.00 0.01 0.00 84 1027.9
20260505203003 51 246 1.0 6.0 0.00 0.01 0.00 84 1027.9
20260505202004 51 344 1.0 6.0 0.00 0.01 0.00 83 1027.8
20260505201003 51 332 1.0 2.0 0.00 0.01 0.00 83 1027.8
20260505200004 52 3 1.0 6.0 0.00 0.01 0.00 82 1027.8
20260505195003 52 323 1.0 7.0 0.00 0.01 0.00 82 1027.7
20260505194003 52 273 1.0 4.0 0.00 0.01 0.00 82 1027.8
20260505193003 52 5 1.0 4.0 0.00 0.01 0.00 81 1027.8
20260505192004 52 174 1.0 6.0 0.00 0.01 0.00 81 1027.7
20260505191004 52 343 1.0 4.0 0.00 0.01 0.00 80 1027.7
20260505190004 52 96 1.0 3.0 0.00 0.01 0.00 80 1027.6
20260505185004 52 124 1.0 4.0 0.00 0.01 0.00 79 1027.5
20260505184004 53 67 1.0 7.0 0.00 0.01 0.00 79 1027.5
20260505183004 53 81 1.0 4.0 0.00 0.01 0.00 78 1027.5
20260505182003 53 52 1.0 3.0 0.00 0.01 0.00 78 1027.5
20260505181024 53 26 1.0 4.0 0.00 0.01 0.00 78 1027.4
20260505180004 53 90 1.0 4.0 0.00 0.01 0.00 77 1027.4
20260505175003 53 135 1.0 8.0 0.00 0.01 0.00 77 1027.3
20260505174003 53 318 1.0 4.0 0.00 0.01 0.00 77 1027.3
20260505173004 53 324 1.0 5.0 0.00 0.01 0.00 77 1027.3
20260505172025 53 340 1.0 5.0 0.00 0.01 0.00 77 1027.3
20260505171003 54 1 1.0 4.0 0.00 0.01 0.00 77 1027.2
20260505170003 54 30 1.0 3.0 0.00 0.01 0.00 77 1027.1
20260505165003 54 28 1.0 3.0 0.00 0.01 0.00 77 1027.2
20260505164004 54 321 2.0 5.0 0.00 0.01 0.00 77 1027.0
20260505163004 54 349 1.0 5.0 0.00 0.01 0.00 77 1027.0
20260505162003 54 277 1.0 3.0 0.00 0.01 0.00 77 1027.0
20260505161004 54 262 0.0 3.0 0.00 0.01 0.00 77 1026.9
20260505153004 54 45 2.0 4.0 0.00 0.01 0.01 77 1026.9
20260505152004 54 38 1.0 5.0 0.00 0.01 0.01 77 1026.9
20260505151004 54 22 1.0 4.0 0.00 0.01 0.01 77 1026.8
20260505125004 54 22 1.0 3.0 0.00 0.01 0.01 83 1026.5
20260505124004 54 22 1.0 2.0 0.00 0.01 0.01 84 1026.5
20260505123004 54 22 1.0 2.0 0.00 0.01 0.01 84 1026.5
20260505122004 54 22 0.0 2.0 0.00 0.01 0.01 84 1026.5
20260505121004 54 22 2.0 3.0 0.00 0.01 0.01 83 1026.5
20260505120004 55 22 2.0 3.0 0.00 0.01 0.01 82 1026.4
20260505115004 55 21 2.0 4.0 0.00 0.01 0.01 81 1026.3
20260505114025 56 20 2.0 4.0 0.00 0.01 0.01 81 1026.2
20260505113025 56 21 2.0 4.0 0.00 0.01 0.01 79 1026.2
20260505112003 57 21 2.0 4.0 0.00 0.01 0.01 78 1026.2
20260505111003 58 21 1.0 4.0 0.00 0.01 0.01 77 1026.1
20260505102004 61 20 1.0 3.0 0.00 0.01 0.01 71 1025.6
20260505101003 62 21 2.0 4.0 0.00 0.01 0.01 69 1025.5
20260505100004 63 165 2.0 6.0 0.00 0.01 0.01 68 1025.3
20260505095004 64 170 1.0 2.0 0.00 0.01 0.01 67 1025.2
20260505094004 65 170 0.0 2.0 0.00 0.01 0.01 65 1025.2
20260505093025 66 170 1.0 2.0 0.00 0.01 0.01 64 1025.1
20260505092025 67 170 1.0 2.0 0.00 0.01 0.01 60 1025.1
20260505091003 68 170 1.0 2.0 0.00 0.01 0.01 58 1025.0
20260505090004 70 170 0.0 4.0 0.00 0.01 0.01 56 1024.9
20260505085025 70 170 0.0 2.0 0.00 0.01 0.01 54 1025.0
20260505084004 70 172 1.0 6.0 0.00 0.01 0.01 53 1024.9
20260505083004 70 151 1.0 5.0 0.00 0.01 0.01 53 1024.9
20260505082003 71 153 1.0 4.0 0.00 0.01 0.01 52 1024.9
20260505081003 71 191 1.0 5.0 0.00 0.01 0.01 51 1024.8
20260505080024 71 166 2.0 5.0 0.00 0.01 0.01 50 1024.8
20260505075003 71 207 1.0 4.0 0.00 0.01 0.01 50 1024.8
20260505074003 71 176 3.0 8.0 0.00 0.01 0.01 50 1024.8
20260505073003 72 124 2.0 8.0 0.00 0.01 0.01 50 1024.7
20260505072004 72 56 2.0 5.0 0.00 0.01 0.01 49 1024.8
20260505071004 72 106 1.0 6.0 0.00 0.01 0.01 48 1024.8
20260505070004 72 129 2.0 7.0 0.00 0.01 0.01 47 1024.8
20260505065004 72 69 1.0 7.0 0.00 0.01 0.01 49 1024.8
20260505064004 72 60 2.0 4.0 0.00 0.01 0.01 50 1024.8
20260505063003 72 43 2.0 6.0 0.00 0.01 0.01 49 1024.7
20260505062003 72 62 2.0 5.0 0.00 0.01 0.01 51 1024.7
20260505061004 72 67 1.0 9.0 0.00 0.01 0.01 51 1024.8
20260505060004 72 45 2.0 7.0 0.00 0.01 0.01 50 1024.8
20260505055004 72 50 2.0 8.0 0.00 0.01 0.01 51 1024.9
20260505054004 71 49 2.0 5.0 0.00 0.01 0.01 51 1024.9
20260505053004 70 49 2.0 4.0 0.00 0.01 0.01 52 1025.0
20260505052004 70 80 1.0 4.0 0.00 0.01 0.01 54 1025.1
20260505051004 70 89 1.0 4.0 0.00 0.01 0.01 54 1025.2
20260505041004 67 86 2.0 4.0 0.00 0.01 0.01 62 1026.1
20260505040004 67 127 2.0 8.0 0.00 0.01 0.01 62 1026.3
20260505035004 66 180 2.0 5.0 0.00 0.01 0.01 63 1026.5
20260505034004 66 334 2.0 5.0 0.00 0.01 0.01 64 1026.5
20260505033004 66 95 3.0 8.0 0.00 0.01 0.01 64 1026.7
20260505032004 65 130 2.0 7.0 0.00 0.01 0.01 66 1026.8
20260505031025 65 144 2.0 5.0 0.00 0.01 0.01 67 1026.8
20260505030004 65 103 1.0 6.0 0.00 0.01 0.01 67 1026.8
20260505025004 64 92 2.0 7.0 0.00 0.01 0.01 69 1026.8
20260505024025 63 97 1.0 9.0 0.00 0.01 0.01 70 1026.9
20260505023004 62 137 1.0 5.0 0.00 0.01 0.01 72 1026.9
20260505022003 61 110 2.0 6.0 0.00 0.01 0.01 75 1026.9
20260505021004 60 114 2.0 6.0 0.00 0.01 0.01 79 1026.9
20260505020004 58 109 1.0 5.0 0.00 0.01 0.01 82 1027.0
20260505015004 57 84 1.0 3.0 0.00 0.01 0.01 84 1027.0
20260505014024 56 138 2.0 4.0 0.00 0.01 0.01 86 1027.1
20260505013003 55 137 1.0 5.0 0.00 0.01 0.01 88 1027.1
20260505012003 54 81 1.0 3.0 0.00 0.01 0.01 88 1027.1
20260505011003 53 122 1.0 6.0 0.01 0.01 0.01 89 1027.2
20260505010005 52 90 1.0 8.0 0.01 0.01 0.01 90 1027.3
20260505005004 52 336 1.0 3.0 0.01 0.01 0.01 90 1027.3
20260505004003 51 162 1.0 6.0 0.01 0.01 0.01 90 1027.5
20260505003003 50 134 1.0 5.0 0.01 0.01 0.01 91 1027.3
20260505002025 50 86 1.0 6.0 0.01 0.01 0.01 91 1027.2
20260505001004 49 112 1.0 4.0 0.00 0.00 0.00 91 1027.0
20260505000004 49 66 1.0 4.0 0.00 0.00 0.00 90 1026.8
20260504235003 48 11 2.0 7.0 0.00 0.00 0.00 90 1026.7
20260504234024 48 39 1.0 5.0 0.00 0.00 0.00 90 1026.6
20260504233003 48 25 1.0 3.0 0.00 0.00 0.00 90 1026.5
20260504232003 48 5 1.0 3.0 0.00 0.00 0.00 90 1026.4
20260504231024 48 5 1.0 3.0 0.00 0.00 0.00 90 1026.3
20260504230004 48 359 1.0 4.0 0.00 0.00 0.00 90 1026.3
20260504225004 48 18 1.0 3.0 0.00 0.00 0.00 89 1026.2
20260504224003 48 88 1.0 5.0 0.00 0.00 0.00 89 1026.0
20260504223003 48 341 1.0 4.0 0.00 0.00 0.00 89 1025.9
20260504222003 49 67 2.0 8.0 0.00 0.00 0.00 89 1025.9
20260504221004 49 30 1.0 7.0 0.00 0.00 0.00 89 1025.9
20260504220004 49 2 1.0 4.0 0.00 0.00 0.00 89 1025.7
20260504215004 49 22 1.0 3.0 0.00 0.00 0.00 89 1025.7
20260504214003 49 16 1.0 4.0 0.00 0.00 0.00 89 1025.6
20260504213004 49 16 2.0 5.0 0.00 0.00 0.00 89 1025.7
20260504212004 49 322 1.0 4.0 0.00 0.00 0.00 89 1025.8